Location: Daytona Beach
(29.2106°N, 81.0231°W)
Time: 00:31:24
(UTC-04:00)

ISS - Pass Details

Date: 23 June 2021
Orbit: 419 x 421 km, 51.6° (Epoch: 03 August)

Event Time Altitude Azimuth Distance (km) Brightness Sun altitude
Exits shadow 05:53:03 - 228° (SW) 1,576 -1.5 -7.1°
Reaches altitude 10° 05:53:16 10° 228° (SW) 1,490 -1.6 -7.0°
Maximum altitude 05:56:36 73° 313° (NW) 440 -3.7 -6.4°
Drops below altitude 10° 05:59:57 10° 39° (NE) 1,496 0.5 -5.8°
Sets 06:02:04 0° 42° (NE) 2,361 1.8 -5.4°
